Theta_e
311 312 313 313 313 312 313 316 315 312 318 316 316 317 320 318 314 308 313 324 329 330 331 333 333 332 329 327 327 327 327 326 326 325 326 325 324 323 325 323 321 321 325 326
306 312 312 312 312 311 310 312 314 316 319 321 322 322 319 317 314 307 307 308 316 325 328 331 331 333 332 327 326 327 327 326 326 326 325 326 324 318 320 322 321 322 326 328
310 310 311 312 314 315 310 311 313 319 318 315 320 317 315 314 314 311 308 307 310 317 326 328 330 331 332 333 332 330 327 326 326 326 327 327 328 326 325 325 325 326 328 328
306 309 310 311 313 313 316 313 312 316 319 322 313 320 312 312 312 312 311 306 309 310 319 324 326 328 328 330 333 333 332 327 325 327 327 327 328 330 329 329 328 328 328 329
306 308 308 312 313 311 314 312 313 314 315 317 315 317 314 311 312 311 311 307 308 308 310 319 320 324 326 328 329 330 330 329 328 328 328 327 328 329 329 329 330 329 329 329
306 306 307 308 310 310 311 312 313 313 314 315 316 316 314 315 312 310 308 310 308 309 309 309 315 322 322 322 323 325 326 329 330 329 326 323 323 323 326 327 324 323 326 327
306 305 305 307 309 309 310 311 311 312 309 317 314 314 315 310 309 308 306 308 309 308 309 310 309 310 319 319 318 314 317 319 324 322 325 322 322 323 324 327 328 326 328 328
308 305 305 306 308 310 310 310 313 312 314 315 309 312 312 309 309 310 309 309 311 310 308 309 310 310 309 309 309 308 308 310 312 313 313 313 316 320 323 326 328 326 327 327
309 308 306 307 307 307 309 310 309 310 304 310 307 307 308 309 307 306 306 307 312 313 312 309 309 309 309 309 310 310 309 309 309 310 310 311 311 311 311 312 312 312 311 310
309 309 307 307 306 306 308 307 308 305 307 310 311 306 308 307 306 305 304 304 305 306 307 309 311 309 309 309 309 310 310 310 310 310 311 311 311 311 311 312 313 313 313 313
307 308 306 305 307 308 306 307 307 307 308 310 311 308 303 305 304 303 304 305 305 306 306 306 307 307 308 308 307 307 307 308 308 307 307 307 308 310 311 311 311 311 311 312
306 305 301 308 306 305 307 308 306 304 307 306 307 308 305 304 304 303 304 302 302 302 302 303 305 306 307 307 307 307 306 306 306 306 306 306 306 305 306 307 307 308 308 308
307 299 294 299 302 303 307 307 307 305 305 308 305 307 304 302 303 303 303 301 301 300 300 301 301 301 302 303 305 306 306 305 304 304 304 304 304 304 304 304 304 304 305 305
305 302 300 300 303 303 306 307 307 306 303 307 306 304 305 303 301 301 302 301 300 300 300 300 300 300 300 300 301 302 304 306 305 304 304 304 304 304 303 303 303 303 304 304
301 300 299 301 300 300 303 306 306 308 306 304 307 305 303 305 301 301 302 301 300 300 300 300 300 300 300 300 300 300 301 302 303 306 305 304 304 304 304 303 303 303 303 303
297 296 294 294 297 296 298 300 303 304 307 307 307 308 305 302 301 301 301 300 300 300 300 300 300 300 299 299 299 299 299 300 301 302 303 306 305 304 304 304 303 303 303 303
297 290 287 291 293 291 292 294 299 301 302 304 306 305 301 298 299 301 300 300 299 299 299 299 299 299 299 299 299 299 299 299 300 301 302 302 305 306 305 305 304 303 303 303
294 286 280 287 285 291 296 294 295 297 298 300 301 300 300 298 300 301 300 300 299 299 299 298 298 299 299 299 299 299 299 299 300 300 301 302 302 303 305 305 304 303 303 302
296 293 283 290 280 290 296 295 295 297 297 296 298 298 297 300 299 299 300 299 299 299 299 299 298 298 299 299 299 299 299 300 300 300 301 301 301 302 303 304 303 303 302 302
294 293 290 283 286 288 294 298 297 296 294 296 297 297 297 298 297 293 298 299 299 298 298 299 299 298 299 299 299 299 300 300 300 300 301 301 302 302 302 303 303 302 301 301
288 285 287 288 285 290 292 295 296 292 294 298 299 299 298 295 297 298 299 299 299 298 298 298 298 298 299 299 298 299 300 300 300 300 300 301 302 303 302 302 302 301 301 300
295 288 285 282 286 293 294 295 297 296 297 299 299 299 299 299 299 299 298 298 298 298 298 298 298 298 298 298 298 298 300 300 299 299 299 300 301 301 301 301 300 300 300 299
294 294 293 293 294 295 296 297 298 298 299 299 299 299 299 298 298 299 299 298 298 298 298 298 298 298 298 298 298 298 300 300 299 298 299 299 300 298 298 298 297 298 298 298
293 293 293 294 295 295 297 298 298 299 299 299 298 299 299 299 299 299 299 299 298 298 298 297 298 298 298 298 298 298 300 299 299 299 299 299 298 299 299 299 299 299 300 300
293 293 292 292 295 296 297 298 298 298 298 298 298 298 298 298 299 299 299 299 299 298 298 298 297 297 298 298 298 298 300 300 299 299 299 299 299 298 298 298 298 297 298 298
293 293 295 294 297 297 298 299 298 298 298 298 298 298 298 298 298 298 298 299 299 299 298 298 298 298 297 298 298 298 300 300 300 299 299 298 298 298 298 298 297 297 297 296
Wind_Speed
2 2 9 16 9 13 9 9 8 10 6 11 15 11 6 21 24 24 23 8 4 5 7 15 18 18 21 23 25 23 21 19 20 21 21 21 23 23 22 20 18 17 16 16
4 2 5 12 10 5 6 6 9 9 8 3 9 11 9 11 7 16 17 18 9 4 2 4 13 18 18 20 23 25 23 22 19 19 18 18 19 22 22 21 21 19 17 15
1 5 8 8 8 11 3 6 6 4 11 7 3 3 6 6 11 19 27 25 20 16 11 7 6 12 15 19 19 22 25 25 23 22 21 20 19 21 20 19 18 16 17 16
3 5 4 5 7 11 6 14 8 6 2 3 4 2 4 6 10 12 23 28 26 21 11 12 10 6 8 14 19 13 14 20 22 22 22 23 22 22 21 18 14 15 15 15
4 6 6 6 6 11 4 13 3 5 5 3 7 3 3 3 7 9 19 21 22 7 20 11 15 15 9 4 3 11 8 15 18 19 20 21 23 23 22 20 17 19 18 17
3 5 2 3 0 3 5 5 1 2 2 4 6 2 3 3 5 2 13 27 24 20 18 19 8 8 10 10 8 5 2 6 3 4 6 10 10 13 16 17 17 17 20 20
6 5 6 3 3 4 6 4 3 5 5 3 8 4 4 5 5 4 4 8 19 21 20 17 14 14 4 8 10 11 9 10 15 15 17 12 16 20 22 26 27 25 21 21
4 6 6 7 2 3 4 3 2 1 3 2 7 6 3 2 2 6 7 5 10 21 19 17 17 15 13 8 4 2 6 7 7 7 11 11 15 17 18 19 19 19 20 20
5 3 5 2 3 2 5 4 2 4 1 3 3 2 1 3 1 5 5 6 4 10 12 17 15 13 11 11 10 7 7 5 3 5 6 8 10 9 10 11 12 14 15 14
2 4 3 4 4 3 4 1 3 3 3 2 3 3 3 6 5 6 9 15 17 16 15 10 6 10 11 10 10 10 9 7 6 4 2 2 3 3 4 4 6 7 6 5
2 1 6 2 5 2 5 3 4 4 2 2 3 2 3 4 5 6 10 15 18 19 19 18 17 15 12 11 11 10 8 5 4 5 6 6 6 3 2 4 4 3 3 3
2 2 3 2 3 2 1 2 1 3 2 2 2 2 2 4 6 8 10 13 17 19 19 19 19 20 20 18 14 12 10 9 9 9 6 4 4 4 4 5 3 2 3 2
2 2 3 7 5 4 5 3 2 2 2 1 4 3 1 6 7 7 9 12 16 18 20 21 23 24 23 21 19 17 14 11 9 8 8 7 6 4 4 4 3 3 3 2
1 1 4 4 3 1 4 3 3 1 3 2 2 4 3 3 6 6 9 10 14 17 18 20 21 22 23 23 22 21 18 15 12 9 7 7 7 8 8 6 4 4 4 4
2 2 2 1 1 1 2 3 3 1 2 4 2 5 6 2 3 4 7 9 12 15 17 19 20 21 21 21 21 20 19 18 16 13 10 8 7 7 7 9 10 8 7 7
2 2 1 3 3 4 3 4 4 2 1 1 2 1 2 5 9 7 7 8 12 13 14 15 16 18 19 20 20 20 19 17 17 15 13 11 11 11 10 9 9 9 11 11
2 4 3 4 4 3 5 6 5 2 1 4 4 3 2 3 6 7 8 8 8 9 11 13 15 16 17 17 18 19 19 19 18 17 15 13 12 13 13 13 13 13 11 11
4 4 2 3 4 2 4 1 1 3 4 4 1 4 2 4 4 10 8 5 6 10 15 16 16 16 15 15 16 18 19 19 19 18 17 16 14 14 14 15 15 15 15 15
2 4 2 3 3 6 3 3 5 5 1 3 5 1 5 10 9 6 2 4 8 11 13 15 16 17 17 17 16 17 18 18 19 19 18 17 16 15 14 15 15 15 16 16
3 4 3 2 5 5 4 1 2 2 2 2 5 5 8 9 3 4 1 9 13 13 14 16 17 16 15 16 18 19 19 18 18 18 17 16 16 15 15 15 15 14 14 14
1 3 5 2 1 7 7 4 3 6 4 3 6 9 11 3 3 2 9 14 16 16 16 16 16 16 15 18 21 19 18 18 18 18 17 14 14 14 12 11 11 12 12 12
7 6 4 3 3 7 7 5 5 4 7 9 7 5 4 4 6 12 15 17 16 15 14 15 18 18 19 22 22 19 17 17 16 16 16 15 13 11 9 7 7 8 10 11
3 6 5 7 5 4 12 2 7 11 10 7 1 5 7 10 10 12 14 16 18 18 18 18 21 22 20 20 20 19 16 16 14 13 13 12 10 8 7 6 4 4 7 10
4 6 3 3 5 11 7 12 10 7 5 5 6 5 6 8 11 14 16 18 19 17 18 19 20 22 22 17 19 17 15 14 12 11 13 9 7 5 5 6 5 6 8 10
5 10 6 4 6 2 7 15 14 10 9 9 9 7 9 12 14 16 18 18 19 19 20 21 21 23 21 19 18 17 17 16 13 14 13 10 8 7 7 8 8 9 9 9
10 7 5 5 13 9 8 9 7 8 9 8 10 12 12 12 16 17 21 21 22 23 25 27 26 25 24 23 21 19 20 21 19 18 16 15 14 14 15 15 16 16 17 18
Wind_Direction
285 7 343 324 267 254 278 283 275 296 241 172 193 190 43 46 11 13 29 317 349 315 253 228 225 226 226 226 229 229 232 233 229 228 229 233 238 240 242 244 248 252 256 264
7 317 328 337 332 5 343 287 279 235 167 129 139 149 73 66 354 357 38 23 18 60 220 216 216 222 222 229 230 233 236 237 239 236 238 248 255 256 253 256 256 255 263 267
333 277 316 334 343 350 319 353 318 89 103 50 90 41 49 33 51 346 16 23 34 41 42 64 136 196 216 217 223 232 237 239 240 242 240 244 250 253 253 251 253 256 263 263
256 304 309 16 4 344 348 353 348 14 62 119 317 117 47 10 54 349 1 4 27 26 61 80 96 129 189 207 223 245 251 230 236 242 245 245 249 253 256 258 261 258 263 271
284 328 340 50 359 351 329 326 2 46 62 97 358 84 360 58 76 28 347 344 25 13 46 52 74 78 74 97 225 243 241 239 237 245 248 249 255 260 261 257 259 254 260 268
262 295 342 308 223 313 297 352 300 80 102 52 354 5 14 42 68 73 3 354 4 30 52 38 25 64 46 30 356 14 289 160 241 256 299 306 292 283 278 271 267 277 278 275
339 328 325 5 324 310 9 2 344 13 28 42 342 35 14 358 357 12 9 16 7 25 39 53 43 56 39 357 339 331 309 307 251 264 256 251 259 259 264 263 262 259 262 274
18 342 358 337 23 319 358 38 79 52 14 356 9 10 43 72 105 38 7 43 13 35 35 35 39 50 65 91 76 282 272 259 281 273 268 266 256 255 259 260 264 267 265 265
3 285 322 340 315 13 328 51 188 113 17 52 349 282 202 168 32 47 47 47 46 312 338 29 33 38 48 58 63 54 30 7 344 276 257 250 254 253 254 256 260 260 262 265
72 303 294 298 2 20 82 216 43 9 70 65 360 30 29 30 40 42 34 40 58 68 64 46 21 44 37 40 52 47 34 19 8 359 324 278 246 242 254 257 250 239 236 241
68 94 298 24 37 351 346 18 49 114 99 140 127 324 304 54 40 42 38 52 53 54 53 54 56 59 54 50 45 43 40 37 27 21 16 5 346 315 210 196 218 236 231 224
30 94 261 251 306 268 232 1 21 100 275 66 97 280 36 52 69 72 51 55 56 57 53 49 46 45 45 43 38 35 32 25 18 8 5 9 359 353 333 313 288 221 212 210
11 350 6 350 2 1 38 357 350 61 74 8 119 220 120 63 82 76 78 68 63 57 53 48 45 42 39 36 34 31 25 21 19 17 9 358 346 348 344 337 331 306 298 291
306 85 157 180 181 334 319 352 355 53 87 175 195 163 203 99 124 98 93 77 63 54 47 42 37 33 31 29 27 24 20 14 5 356 358 356 347 341 330 318 303 292 287 278
52 160 25 184 32 47 282 297 333 77 169 139 181 167 194 180 142 78 87 77 63 50 38 30 24 19 16 13 12 10 10 6 358 349 336 324 317 315 319 319 311 298 283 279
18 151 49 314 359 27 296 274 279 276 225 106 94 293 145 125 136 121 114 79 58 44 30 19 12 7 6 2 359 355 351 350 349 347 335 316 300 295 294 290 288 291 294 291
61 120 67 270 333 355 343 228 199 200 212 142 165 225 127 55 103 135 128 99 67 41 20 8 2 359 357 357 356 355 350 345 341 337 332 324 306 296 288 283 282 275 265 262
124 93 73 227 8 13 240 253 109 251 263 206 143 136 140 164 152 146 127 72 25 5 358 355 352 351 352 350 348 349 348 345 339 334 329 324 317 305 292 285 283 277 273 268
53 127 74 128 174 290 300 184 154 173 216 191 207 173 137 143 134 157 179 8 354 341 336 335 334 334 337 340 342 343 344 342 340 333 325 320 315 304 296 288 280 275 270 265
51 60 112 83 129 216 259 183 143 122 328 190 194 168 149 146 94 256 26 342 333 326 320 319 321 323 329 336 336 335 337 339 339 335 327 319 314 308 298 288 281 274 266 259
73 13 151 166 192 287 250 210 70 85 224 135 125 136 147 148 180 189 304 311 321 323 324 324 323 319 319 326 328 325 327 333 335 337 334 328 323 316 305 292 281 268 259 251
168 142 191 92 84 272 186 115 151 182 131 133 129 154 204 240 265 301 304 308 312 310 310 314 316 315 312 316 319 317 318 325 328 333 336 337 333 326 315 297 283 265 252 240
223 189 177 181 210 240 194 116 168 150 144 142 217 258 263 272 291 303 305 306 306 304 299 300 301 302 305 306 307 304 306 315 319 326 335 339 343 351 354 349 337 294 264 261
239 184 180 110 231 229 209 212 203 214 205 253 258 250 250 276 298 298 302 306 311 310 306 308 304 302 302 301 297 287 286 301 300 299 317 317 325 333 321 324 317 305 289 278
193 148 172 265 273 287 241 229 228 223 234 237 234 248 275 281 287 290 290 294 300 299 305 307 307 307 306 303 296 282 272 278 284 279 285 289 283 286 287 282 275 276 279 280
193 177 171 215 201 191 165 147 171 201 220 240 255 266 273 274 284 285 282 286 287 288 291 292 294 298 295 293 291 287 276 272 271 274 267 264 266 268 268 268 267 267 268 270